Find Starlink 32686

NORAD ID: 62192 Int'l Des: 2024-229 Owner: SPXS Country: US Constellation: starlink operational
LEOCIRCULAR

現在のビュー

3D地球を読み込み中...

About Starlink 32686

Starlink 32686 (NORAD 62192) is a starlink constellation satellite (v2 mini) launched Dec 4, 2024 by SPXS of US. It operates in LEO, CIRCULAR orbit with a mass of 730.00 kg.

Starlink 32686について

説明を読み込み中...

次回通過

Passes for default location (London). Set your location on the main map for personalized predictions.

高度履歴

Loading altitude history...

軌道要素

1 62192U 24229A 26167.03289005 .00020876 00000-0 76522-3 0 9996
2 62192 43.0001 71.7053 0003621 273.2786 86.7652 15.27608871 85642
Epoch: Jun 16, 2026 • Age: 8 hours

現在のステータス

高度 488.0 km
速度 7.63 km/s
衛星直下点 41.33°N, 100.39°E
打ち上げ日 Dec 4, 2024
運用期間 1.5 years
タイプ internet

技術仕様

分類 Payload
質量 730.00 kg
乾燥質量 700.00 kg
総質量 730.00 kg
長さ 0.30 m
直径 4.10 m
スパン 29.00 m
形状 Box + pan
製造者 SPXS
バスタイプ Starlink V2M
フェーズステータス In Orbit
所有者/国 SPXS/US

Most Searched